Strona główna
METAR-TAF:

METAR-TAF

Lotnisko :

Pembrey, Walia

Szerokość geograficzna: 51-43N, Długość geograficzna: 004-22W, wysokość: 3 m

Aktualna obserwacja pogody

Raport powstał 1 godzina i 9 minut temu, godzina 06:50 UTC
Wiatr 2 kt od wschodnio-północny wschód
Temperatura 2°C
Wilgotność 100%
Ciśnienie 1029 hPa
Widzialność 10 km lub więcej

METAR: EGOP 070650Z AUTO 06002KT 9999 // NCD 02/02 Q1029

czas: 08:59 (07:59 UTC)


TAF: brakujący

Obserwacja i prognoza pogody dla ponad 4000 lotnisk (raport METAR i TAF).

Dostępne stacje oznaczono żółtymi i czerwonymi punktami na mapie.

Najedź kursorem aby zobaczyć nazwę stacji.

Kliknij aby zobaczyć obserwacje i prognozy pogody.

Aby zmienić mapę: kliknij na zielony przycisk z czarnym krzyżykiem, aby powiększyć; na zielony przycisk z myślnikiem, aby pomniejszyć; na zielone strzałki, aby przejść do map sąsiednich.


METAR-TAF: